FENGYUN 1C DEB

Satellite information

Favourite Embed

Satellite Type and Status

DEBRISIN ORBIT

Key statistics

Satellite FENGYUN 1C DEB at a glance.

Uptime

9493

Days in orbit

Revolutions

≈ 14.2

Per day

Orbit

SSO

Sun Synchronous Orbit

Inclination

98.6

Latest

Satellite identification and parameters

Extended collection of information and parameters for FENGYUN 1C DEB.

Object identification

Identified? True

Debris? True

Object name: FENGYUN 1C DEB

International designator: 1999-025BRS

Object number (NORAD): 31362

Object ID (CCSDS): 31362

Country: PEOPLES REPUBLIC OF CHINA (PRC)

Current information (Y/N): Y

RCS size: SMALL

Orbital parameters

Period: 101.608 minutes

Inclination: 98.6425 deg

SMA: 7212.952 km

Apoapsis: 848.2 km

Periapsis: 821.434 km

RAAN: 126.2658 deg

Eccentricy: 0.0018554

Argument of periapsis: 14.463 deg

Mean anomaly: 345.7073 deg

Mean motion: 14.17206811 rev/day

Mean motion (dot): 0.00000425 rev/day2

B* drag term: 0.00023138 1/REarth

Two-line elements (TLE)

Creation date: May 6, 2025, 3:54 a.m.

Reference frame: TEME

Reference center: EARTH

Epoch: May 5, 2025, 10:41 p.m. UTC

TLE line 0: 0 FENGYUN 1C DEB

TLE line 1: 1 31362U 99025BRS 25125.94523102 .00000425 00000-0 23138-3 0 9992

TLE line 2: 2 31362 98.6425 126.2658 0018554 14.4630 345.7073 14.17206811934480

Live tracking on map

Real-time ground track for satellite FENGYUN 1C DEB.

In-orbit conjunctions

A list of the most updated potential collisions computed for object FENGYUN 1C DEB.

Target Orbit TCA Probability of collision Miss distance Type
SL-16 R/B LEO 2025-01-06 19:27:38 0.004406191 49.0 (m) ROCKET BODY
METEOR 2-6 DEB LEO 2024-07-27 17:04:22 0.0001226702 80.0 (m) DEBRIS

Associated space launch

Chinese polar orbiting meteorological satellite

FENGYUN 1C DEB was lifted into orbit during the mission ‘Long March 4B | Feng Yun 1C’, on board a Long March 4B space rocket.

The launch took place on May 10, 1999, 1:33 a.m. from Launch Complex 7.

For more information about the launch, click the button.

Launch to space Long March 4B | Feng Yun 1C
Long March 4B | Feng Yun 1C

Agency: N/A

Status: Launch Successful

Launch date: May 10, 1999, 1:33 a.m. UTC

Rocket: Long March 4B

Launch pad: Launch Complex 7

Location: Taiyuan Satellite Launch Center, People's Republic of China

...

Latest news about this satellite

There are no fresh news available about this satellite. Check back as we update our databases every day.


Newsletter sign-up

Weekly statistics, charts and insights to help you stay on top of the space industry.